TimePDT,TemperatureF,Dew PointF,Humidity,Sea Level PressureIn,VisibilityMPH,Wind Direction,Wind SpeedMPH,Gust SpeedMPH,PrecipitationIn,Events,Conditions,WindDirDegrees,DateUTC
12:54 AM,53.1,50.0,89,29.94,10.0,Calm,Calm,-,N/A,,Overcast,0,2013-08-25 07:54:00
1:54 AM,52.0,50.0,93,29.95,10.0,Calm,Calm,-,N/A,,Clear,0,2013-08-25 08:54:00
2:16 AM,51.1,50.0,96,29.94,1.8,Calm,Calm,-,N/A,,Clear,0,2013-08-25 09:16:00
2:26 AM,51.1,50.0,96,29.94,4.0,Calm,Calm,-,N/A,,Clear,0,2013-08-25 09:26:00
2:54 AM,51.1,50.0,96,29.95,4.0,Calm,Calm,-,N/A,,Clear,0,2013-08-25 09:54:00
3:10 AM,48.0,46.9,96,29.94,1.8,South,3.5,-,N/A,,Clear,190,2013-08-25 10:10:00
3:21 AM,48.0,46.9,96,29.94,3.0,Calm,Calm,-,N/A,,Clear,0,2013-08-25 10:21:00
3:54 AM,48.0,46.9,96,29.94,10.0,Calm,Calm,-,N/A,,Clear,0,2013-08-25 10:54:00
4:13 AM,48.9,48.0,97,29.94,1.5,Calm,Calm,-,N/A,,Clear,0,2013-08-25 11:13:00
4:15 AM,48.0,46.9,96,29.94,0.8,Calm,Calm,-,N/A,,Mist,0,2013-08-25 11:15:00
4:31 AM,48.0,46.9,96,29.94,1.8,Calm,Calm,-,N/A,,Partly Cloudy,0,2013-08-25 11:31:00
4:33 AM,48.0,46.9,96,29.94,3.0,Calm,Calm,-,N/A,,Scattered Clouds,0,2013-08-25 11:33:00
4:54 AM,46.9,46.0,97,29.95,2.5,Calm,Calm,-,N/A,,Partly Cloudy,0,2013-08-25 11:54:00
4:56 AM,46.9,46.0,97,29.94,1.0,Calm,Calm,-,N/A,,Mist,0,2013-08-25 11:56:00
5:03 AM,46.9,45.0,93,29.94,0.2,Calm,Calm,-,N/A,Fog,Fog,0,2013-08-25 12:03:00
5:16 AM,48.0,46.0,93,29.94,1.5,Calm,Calm,-,N/A,,Scattered Clouds,0,2013-08-25 12:16:00
5:23 AM,46.9,46.0,97,29.94,8.0,Calm,Calm,-,N/A,,Scattered Clouds,0,2013-08-25 12:23:00
5:26 AM,46.0,46.0,100,29.94,2.5,Calm,Calm,-,N/A,,Mostly Cloudy,0,2013-08-25 12:26:00
5:28 AM,46.0,46.0,100,29.94,1.0,Calm,Calm,-,N/A,,Mist,0,2013-08-25 12:28:00
5:35 AM,46.0,45.0,96,29.94,0.5,Calm,Calm,-,N/A,Fog,Fog,0,2013-08-25 12:35:00
5:46 AM,46.9,46.0,97,29.95,1.0,Calm,Calm,-,N/A,,Overcast,0,2013-08-25 12:46:00
5:54 AM,46.9,46.0,97,29.95,0.8,Calm,Calm,-,N/A,,Overcast,0,2013-08-25 12:54:00
6:09 AM,46.9,46.9,100,29.95,1.5,South,3.5,-,N/A,,Overcast,190,2013-08-25 13:09:00
6:14 AM,46.0,46.0,100,29.95,3.0,Calm,Calm,-,N/A,,Overcast,0,2013-08-25 13:14:00
6:18 AM,46.9,46.0,97,29.95,1.5,Calm,Calm,-,N/A,,Overcast,0,2013-08-25 13:18:00
6:21 AM,46.9,46.0,97,29.95,0.8,Calm,Calm,-,N/A,,Mist,0,2013-08-25 13:21:00
6:33 AM,46.9,46.9,100,29.95,0.2,Calm,Calm,-,N/A,Fog,Fog,0,2013-08-25 13:33:00
6:54 AM,48.9,48.0,97,29.96,0.2,Calm,Calm,-,N/A,Fog,Fog,0,2013-08-25 13:54:00
7:54 AM,51.1,51.1,100,29.96,0.2,Calm,Calm,-,N/A,Fog,Fog,0,2013-08-25 14:54:00
8:54 AM,53.1,53.1,100,29.95,0.5,Calm,Calm,-,N/A,Fog,Fog,0,2013-08-25 15:54:00
9:05 AM,53.1,53.1,100,29.95,1.5,Calm,Calm,-,N/A,,Overcast,0,2013-08-25 16:05:00
9:10 AM,54.0,53.1,97,29.95,3.0,Calm,Calm,-,N/A,,Overcast,0,2013-08-25 16:10:00
9:31 AM,55.0,54.0,96,29.95,7.0,Variable,3.5,-,N/A,,Mostly Cloudy,0,2013-08-25 16:31:00
9:47 AM,57.9,54.0,87,29.95,8.0,Calm,Calm,-,N/A,,Partly Cloudy,0,2013-08-25 16:47:00
9:54 AM,59.0,54.0,83,29.95,9.0,ENE,4.6,-,N/A,,Partly Cloudy,70,2013-08-25 16:54:00
10:54 AM,64.0,53.1,67,29.94,10.0,Calm,Calm,-,N/A,,Partly Cloudy,0,2013-08-25 17:54:00
11:54 AM,66.9,53.1,61,29.93,10.0,Variable,3.5,-,N/A,,Clear,0,2013-08-25 18:54:00
12:54 PM,70.0,52.0,53,29.92,10.0,Calm,Calm,-,N/A,,Partly Cloudy,0,2013-08-25 19:54:00
1:54 PM,69.1,53.1,57,29.91,10.0,Calm,Calm,-,N/A,,Partly Cloudy,0,2013-08-25 20:54:00
2:54 PM,69.1,53.1,57,29.91,10.0,Calm,Calm,-,N/A,,Overcast,0,2013-08-25 21:54:00
3:54 PM,69.1,53.1,57,29.90,10.0,Calm,Calm,-,N/A,,Overcast,0,2013-08-25 22:54:00
4:54 PM,69.1,53.1,57,29.90,10.0,SSE,6.9,-,N/A,,Overcast,160,2013-08-25 23:54:00
5:54 PM,69.1,55.0,61,29.90,10.0,SSW,8.1,-,N/A,,Overcast,200,2013-08-26 00:54:00
6:54 PM,68.0,54.0,61,29.89,10.0,SSW,4.6,-,N/A,,Overcast,200,2013-08-26 01:54:00
7:54 PM,66.0,55.0,68,29.90,10.0,South,4.6,-,N/A,,Overcast,190,2013-08-26 02:54:00
8:54 PM,63.0,55.9,78,29.89,10.0,SSW,3.5,-,0.00,,Overcast,210,2013-08-26 03:54:00
9:54 PM,62.1,55.9,80,29.91,10.0,Calm,Calm,-,N/A,,Overcast,0,2013-08-26 04:54:00
10:54 PM,59.0,55.9,90,29.91,10.0,Calm,Calm,-,N/A,,Partly Cloudy,0,2013-08-26 05:54:00
11:54 PM,57.9,55.0,90,29.90,10.0,Calm,Calm,-,N/A,,Partly Cloudy,0,2013-08-26 06:54:00